Time,TemperatureF,DewpointF,PressureIn,WindDirection,WindDirectionDegrees,WindSpeedMPH,WindSpeedGustMPH,Humidity,HourlyPrecipIn,Conditions,Clouds,dailyrainin,SolarRadiationWatts/m^2,SoftwareType,DateUTC
2016-02-10 00:03:00,41.0,33.0,30.32,East,91,0.0,2.0,74,-99.99,,,-99.99,0.000000,,2016-02-10 08:03:00,
2016-02-10 00:13:00,41.0,33.0,30.32,East,91,0.0,2.0,74,-99.99,,,-99.99,0.000000,,2016-02-10 08:13:00,
2016-02-10 00:23:00,41.0,33.0,30.32,East,91,0.0,2.0,74,-99.99,,,-99.99,0.000000,,2016-02-10 08:23:00,
2016-02-10 00:33:00,40.0,33.0,30.32,East,91,1.0,3.0,75,-99.99,,,-99.99,0.000000,,2016-02-10 08:33:00,
2016-02-10 00:43:00,40.0,33.0,30.32,East,91,1.0,3.0,75,-99.99,,,-99.99,0.000000,,2016-02-10 08:43:00,
2016-02-10 00:54:00,40.0,33.0,30.32,East,84,0.0,3.0,76,-99.99,,,-99.99,0.000000,,2016-02-10 08:54:00,
2016-02-10 01:03:00,39.0,32.0,30.32,East,84,1.0,3.0,76,-99.99,,,-99.99,0.000000,,2016-02-10 09:03:00,
2016-02-10 01:12:00,39.0,32.0,30.32,East,84,1.0,3.0,76,-99.99,,,-99.99,0.000000,,2016-02-10 09:12:00,
2016-02-10 01:23:00,39.0,32.0,30.34,East,84,0.0,1.0,77,-99.99,,,-99.99,0.000000,,2016-02-10 09:23:00,
2016-02-10 01:33:00,39.0,33.0,30.35,East,84,0.0,1.0,78,-99.99,,,-99.99,0.000000,,2016-02-10 09:33:00,
2016-02-10 01:43:00,39.0,33.0,30.35,East,84,0.0,1.0,78,-99.99,,,-99.99,0.000000,,2016-02-10 09:43:00,
2016-02-10 01:54:00,39.0,32.0,30.34,East,84,0.0,2.0,77,-99.99,,,-99.99,0.000000,,2016-02-10 09:54:00,
2016-02-10 02:13:00,38.0,31.0,30.35,East,84,0.0,2.0,76,-99.99,,,-99.99,0.000000,,2016-02-10 10:13:00,
2016-02-10 02:33:00,37.0,31.0,30.34,East,84,0.0,2.0,80,-99.99,,,-99.99,0.000000,,2016-02-10 10:33:00,
2016-02-10 02:43:00,37.0,31.0,30.34,East,84,0.0,2.0,80,-99.99,,,-99.99,0.000000,,2016-02-10 10:43:00,
2016-02-10 02:56:00,37.0,32.0,30.34,NNE,30,3.0,5.0,81,-99.99,,,-99.99,0.000000,,2016-02-10 10:56:00,
2016-02-10 03:03:00,36.0,30.0,30.34,NW,311,1.0,4.0,80,-99.99,,,-99.99,0.000000,,2016-02-10 11:03:00,
2016-02-10 03:13:00,36.0,30.0,30.34,NW,311,1.0,4.0,80,-99.99,,,-99.99,0.000000,,2016-02-10 11:13:00,
2016-02-10 03:23:00,36.0,31.0,30.32,NW,311,0.0,2.0,81,-99.99,,,-99.99,0.000000,,2016-02-10 11:23:00,
2016-02-10 03:33:00,35.0,30.0,30.33,NW,311,1.0,3.0,82,-99.99,,,-99.99,0.000000,,2016-02-10 11:33:00,
2016-02-10 03:44:00,35.0,30.0,30.33,NW,311,1.0,3.0,82,-99.99,,,-99.99,0.000000,,2016-02-10 11:44:00,
2016-02-10 03:54:00,35.0,31.0,30.34,NW,326,0.0,2.0,84,-99.99,,,-99.99,0.000000,,2016-02-10 11:54:00,
2016-02-10 04:03:00,35.0,31.0,30.32,NW,326,0.0,0.0,85,-99.99,,,-99.99,0.000000,,2016-02-10 12:03:00,
2016-02-10 04:12:00,35.0,31.0,30.32,NW,326,0.0,0.0,85,-99.99,,,-99.99,0.000000,,2016-02-10 12:12:00,
2016-02-10 04:23:00,35.0,31.0,30.32,NW,326,0.0,1.0,84,-99.99,,,-99.99,0.000000,,2016-02-10 12:23:00,
2016-02-10 04:34:00,35.0,31.0,30.32,NW,326,1.0,3.0,84,-99.99,,,-99.99,0.000000,,2016-02-10 12:34:00,
2016-02-10 05:04:00,34.0,30.0,30.33,NW,326,1.0,3.0,85,-99.99,,,-99.99,0.000000,,2016-02-10 13:04:00,
2016-02-10 05:13:00,34.0,30.0,30.33,NW,326,1.0,3.0,85,-99.99,,,-99.99,0.000000,,2016-02-10 13:13:00,
2016-02-10 05:24:00,34.0,30.0,30.33,NNW,328,1.0,3.0,84,-99.99,,,-99.99,0.000000,,2016-02-10 13:24:00,